Regional Weather Roundup
Issued by NWS

Home | Current Version | Previous Version | Text Only | Print | Product List | Glossary On
Versions: 1 2 3 4 5 6 7 8 9 10 11 12 13 14 15 16 17 18 19 20 21 22 23 24 25 26 27 28 29 30 31 32 33 34 35 36 37 38 39 40 41 42 43 44 45 46 47 48 49 50
000
ASUS43 KBIS 312002
RWRND

NORTH DAKOTA REGIONAL WEATHER ROUNDUP
NATIONAL WEATHER SERVICE BISMARCK ND
300 PM CDT FRI JUL 31 2015

NOTE: "FAIR" INDICATES FEW OR NO CLOUDS BELOW 12,000 FEET WITH NO
SIGNIFICANT WEATHER AND/OR OBSTRUCTIONS TO VISIBILITY.


NDZ001>003-009>011-017-312100-
NORTHWEST NORTH DAKOTA

CITY           SKY/WX    TMP DP  RH WIND       PRES   REMARKS
WILLISTON      SUNNY     87  44  22 VRB6      30.11F
MINOT          SUNNY     82  48  30 NW16G23   30.09F
MINOT AFB      SUNNY     83  51  32 N8        30.08F
$$

NDZ018>021-031>035-040>046-312100-
SOUTHWEST NORTH DAKOTA

CITY           SKY/WX    TMP DP  RH WIND       PRES   REMARKS
BISMARCK       SUNNY     88  51  28 N17       30.09F
DICKINSON      SUNNY     88  40  18 N6        30.13F
GARRISON         N/A     82  54  37 NW12G21   30.10F
HETTINGER ARPT SUNNY     89  41  18 CALM      30.16F
$$

NDZ004>008-012>016-024-026-027-054-312100-
NORTHEAST NORTH DAKOTA

CITY           SKY/WX    TMP DP  RH WIND       PRES   REMARKS
GRAND FORKS    MOSUNNY   82  49  31 NW15G21   30.01F
GRND FRKS AFB  SUNNY     80  49  33 NW16      30.03F
DEVILS LAKE    MOSUNNY   79  52  38 W15       30.06F
$$

NDZ022-023-025-028>030-036>039-047>053-312100-
SOUTHEAST NORTH DAKOTA

CITY           SKY/WX    TMP DP  RH WIND       PRES   REMARKS
FARGO          SUNNY     83  52  34 NW17      30.04F
JAMESTOWN      SUNNY     82  53  36 NW13      30.06F
$$




USA.gov is the U.S. government's official web portal to all federal, state and local government web resources and services.